FW2178 Weather Reports


Display with metric or nautical units.
time (UTC)temp
F
wind
direction
speed
MPH
gust
MPH
rain 1hr
in
rain 24hr
in
rain mn
in
humidity
%
barometer
mb
20260503204203 75 127 1.0 3.0 0.00 0.00 0.00 45 1010.9
20260503204015 75 162 1.0 3.0 0.00 0.00 0.00 44 1010.8
20260503203203 75 138 0.0 3.0 0.00 0.00 0.00 47 1010.7
20260503202702 74 120 0.0 1.0 0.00 0.00 0.00 46 1010.8
20260503202202 74 147 0.0 2.0 0.00 0.00 0.00 47 1010.8
20260503201702 74 146 1.0 2.0 0.00 0.00 0.00 45 1011.0
20260503201202 74 148 0.0 1.0 0.00 0.00 0.00 47 1011.1
20260503200701 74 161 0.0 2.0 0.00 0.00 0.00 49 1011.2
20260503200202 73 132 0.0 2.0 0.00 0.00 0.00 46 1011.2
20260503195702 73 147 0.0 2.0 0.00 0.00 0.00 46 1011.2
20260503195203 73 149 0.0 2.0 0.00 0.00 0.00 48 1011.5
20260503194955 73 109 1.0 2.0 0.00 0.00 0.00 47 1011.3
20260503194202 73 139 1.0 2.0 0.00 0.00 0.00 46 1011.4
20260503193703 73 82 1.0 1.0 0.00 0.00 0.00 49 1011.5
20260503193202 72 130 0.0 2.0 0.00 0.00 0.00 47 1011.7
20260503192702 72 124 0.0 2.0 0.00 0.00 0.00 51 1011.8
20260503192202 72 153 0.0 4.0 0.00 0.00 0.00 50 1011.7
20260503191958 71 134 0.0 4.0 0.00 0.00 0.00 51 1011.9
20260503191159 71 162 0.0 2.0 0.00 0.00 0.00 53 1011.9
20260503190659 71 153 0.0 2.0 0.00 0.00 0.00 50 1011.8
20260503190156 71 156 0.0 0.0 0.00 0.00 0.00 52 1012.2
20260503185653 71 131 0.0 0.0 0.00 0.00 0.00 53 1011.9
20260503185153 70 88 0.0 0.0 0.00 0.00 0.00 52 1011.9
20260503184651 70 103 0.0 0.0 0.00 0.00 0.00 57 1012.1
20260503184150 70 151 0.0 0.0 0.00 0.00 0.00 57 1012.0
20260503183651 69 110 0.0 0.0 0.00 0.00 0.00 54 1012.2
20260503183149 69 131 0.0 0.0 0.00 0.00 0.00 58 1012.2
20260503182657 68 137 0.0 0.0 0.00 0.00 0.00 56 1012.4
20260503182152 68 129 0.0 0.0 0.00 0.00 0.00 57 1012.3
20260503181651 69 157 0.0 0.0 0.00 0.00 0.00 58 1012.3
20260503181149 68 159 0.0 0.0 0.00 0.00 0.00 59 1012.2
20260503180651 68 154 0.0 0.0 0.00 0.00 0.00 57 1012.4
20260503180150 68 154 0.0 0.0 0.00 0.00 0.00 58 1012.4
20260503175650 68 144 0.0 0.0 0.00 0.00 0.00 57 1012.5
20260503175151 67 151 0.0 0.0 0.00 0.00 0.00 58 1012.3
20260503175013 67 156 0.0 0.0 0.00 0.00 0.00 64 1012.5
20260503175007 67 134 0.0 0.0 0.00 0.00 0.00 61 1012.3
20260503173650 67 137 0.0 0.0 0.00 0.00 0.00 57 1012.5
20260503173150 68 154 0.0 0.0 0.00 0.00 0.00 60 1012.5
20260503172648 68 132 0.0 0.0 0.00 0.00 0.00 60 1012.7
20260503172147 67 117 0.0 0.0 0.00 0.00 0.00 58 1012.5
20260503171648 67 129 0.0 0.0 0.00 0.00 0.00 62 1012.5
20260503171145 67 152 0.0 0.0 0.00 0.00 0.00 64 1012.4
20260503170646 67 147 0.0 0.0 0.00 0.00 0.00 66 1012.8
20260503170146 67 147 0.0 0.0 0.00 0.00 0.00 60 1012.6
20260503160146 61 159 0.0 0.0 0.00 0.00 0.00 80 1012.9
20260503150638 54 129 0.0 0.0 0.00 0.00 0.00 91 1012.9
20260503150136 54 129 0.0 0.0 0.00 0.00 0.00 92 1013.0
20260503140137 50 129 0.0 0.0 0.00 0.00 0.00 95 1012.9
20260503131137 49 130 0.0 0.0 0.00 0.00 0.00 95 1012.7
20260503130638 49 131 0.0 0.0 0.00 0.00 0.00 95 1012.7
20260503130137 49 130 0.0 0.0 0.00 0.00 0.00 94 1012.5
20260503120135 49 132 0.0 0.0 0.00 0.00 0.00 93 1012.7
20260503110736 50 132 0.0 0.0 0.00 0.00 0.00 93 1013.1
20260503110717 50 132 0.0 0.0 0.00 0.00 0.00 93 1013.0
20260503090136 52 157 0.0 0.0 0.00 0.00 0.00 84 1013.0
20260503081136 53 157 0.0 0.0 0.00 0.00 0.00 83 1013.4
20260503080635 53 157 0.0 0.0 0.00 0.00 0.00 83 1012.9
20260503080150 54 157 0.0 0.0 0.00 0.00 0.00 83 1013.2
20260503072635 54 157 0.0 0.0 0.00 0.00 0.00 83 1013.1
20260503072135 54 157 0.0 0.0 0.00 0.00 0.00 84 1013.1
20260503071636 54 157 0.0 0.0 0.00 0.00 0.00 84 1012.9
20260503071136 55 157 0.0 0.0 0.00 0.00 0.00 83 1013.1
20260503070636 55 158 0.0 0.0 0.00 0.00 0.00 80 1012.9
20260503070137 55 158 0.0 0.0 0.00 0.00 0.00 80 1013.0
20260503060204 56 158 0.0 0.0 0.00 0.00 0.00 76 1012.9
20260503054635 57 158 0.0 0.0 0.00 0.00 0.00 75 1013.1
20260503054436 57 158 0.0 0.0 0.00 0.00 0.00 76 1012.9
20260503053636 57 158 0.0 0.0 0.00 0.00 0.00 76 1013.0
20260503053135 57 158 0.0 0.0 0.00 0.00 0.00 75 1013.0
20260503052636 58 158 0.0 0.0 0.00 0.00 0.00 76 1012.9
20260503052135 58 158 0.0 0.0 0.00 0.00 0.00 75 1013.0
20260503051700 58 158 0.0 0.0 0.00 0.00 0.00 75 1013.2
20260503050636 58 158 0.0 1.0 0.00 0.00 0.00 73 1013.0
20260503050135 58 158 0.0 1.0 0.00 0.00 0.00 74 1013.1
20260503045636 58 158 0.0 1.0 0.00 0.00 0.00 72 1013.0
20260503045505 59 158 0.0 1.0 0.00 0.00 0.00 76 1013.0
20260503045455 58 158 0.0 1.0 0.00 0.00 0.00 76 1012.7
20260503044135 59 158 0.0 1.0 0.00 0.00 0.00 75 1012.7
20260503043636 59 153 0.0 0.0 0.00 0.00 0.00 75 1012.5
20260503043134 59 153 0.0 0.0 0.00 0.00 0.00 77 1012.5
20260503042946 59 153 0.0 0.0 0.00 0.00 0.00 78 1012.5
20260503042135 59 153 0.0 0.0 0.00 0.00 0.00 73 1012.5
20260503041636 59 153 0.0 1.0 0.00 0.00 0.00 76 1012.4
20260503041135 60 153 0.0 1.0 0.00 0.00 0.00 72 1012.1
20260503040636 60 141 0.0 0.0 0.00 0.00 0.00 74 1012.2
20260503040135 60 156 0.0 0.0 0.00 0.00 0.00 75 1012.4
20260503035939 60 156 0.0 0.0 0.00 0.00 0.00 73 1012.0
20260503035432 60 156 0.0 0.0 0.00 0.00 0.00 74 1012.2
20260503034635 60 155 0.0 1.0 0.00 0.00 0.00 74 1012.1
20260503034134 61 155 0.0 1.0 0.00 0.00 0.00 72 1012.0
20260503033636 61 154 0.0 1.0 0.00 0.00 0.00 72 1012.1
20260503033427 61 144 0.0 1.0 0.00 0.00 0.00 67 1011.8
20260503032636 61 147 0.0 1.0 0.00 0.00 0.00 71 1011.7
20260503032136 61 147 0.0 1.0 0.00 0.00 0.00 70 1011.7
20260503031636 61 147 0.0 1.0 0.00 0.00 0.00 71 1011.9
20260503031134 61 147 0.0 1.0 0.00 0.00 0.00 68 1011.7
20260503030635 61 147 0.0 1.0 0.00 0.00 0.00 71 1011.7
20260503030135 61 147 0.0 1.0 0.00 0.00 0.00 72 1011.7
20260503025940 62 147 0.0 1.0 0.00 0.00 0.00 73 1011.5
20260503025134 62 147 0.0 0.0 0.00 0.00 0.00 73 1011.7
20260503024926 62 147 0.0 0.0 0.00 0.00 0.00 70 1011.5
20260503024221 62 147 0.0 1.0 0.00 0.00 0.00 73 1011.5
20260503024201 62 147 0.0 1.0 0.00 0.00 0.00 68 1011.5
20260503023138 63 147 0.0 1.0 0.00 0.00 0.00 70 1011.4
20260503022630 63 146 0.0 1.0 0.00 0.00 0.00 72 1011.5
20260503022129 63 147 0.0 0.0 0.00 0.00 0.00 72 1011.5
20260503021631 63 147 0.0 0.0 0.00 0.00 0.00 73 1011.3
20260503021417 63 146 0.0 0.0 0.00 0.00 0.00 72 1011.4
20260503020630 64 147 0.0 0.0 0.00 0.00 0.00 73 1011.4
20260503020134 64 147 0.0 1.0 0.00 0.00 0.00 72 1011.4
20260503015629 64 145 0.0 1.0 0.00 0.00 0.00 71 1011.6
20260503015417 64 163 1.0 1.0 0.00 0.00 0.00 71 1011.5
20260503014631 65 153 0.0 1.0 0.00 0.00 0.00 73 1011.5
20260503014130 65 152 0.0 0.0 0.00 0.00 0.00 69 1011.6
20260503013629 66 154 0.0 1.0 0.00 0.00 0.00 73 1011.6
20260503013132 66 153 0.0 3.0 0.00 0.00 0.00 67 1011.7
20260503012629 67 154 0.0 3.0 0.00 0.00 0.00 68 1011.9
20260503012419 67 133 0.0 4.0 0.00 0.00 0.00 64 1011.9
20260503011632 67 124 0.0 4.0 0.00 0.00 0.00 63 1011.7
20260503011130 67 169 0.0 3.0 0.00 0.00 0.00 62 1012.0
20260503010927 67 155 0.0 1.0 0.00 0.00 0.00 67 1011.9
20260503010132 67 155 0.0 1.0 0.00 0.00 0.00 65 1011.9
20260503005628 68 148 0.0 1.0 0.00 0.00 0.00 69 1011.8
20260503005418 69 136 0.0 1.0 0.00 0.00 0.00 65 1012.0
20260503004909 69 122 0.0 0.0 0.00 0.00 0.00 60 1011.7
20260503004422 69 134 0.0 0.0 0.00 0.00 0.00 60 1011.7
20260503003629 68 83 0.0 1.0 0.00 0.00 0.00 64 1011.9
20260503003128 68 154 0.0 1.0 0.00 0.00 0.00 67 1012.0
20260503002632 68 140 0.0 1.0 0.00 0.00 0.00 64 1012.0
20260503002129 69 135 0.0 1.0 0.00 0.00 0.00 65 1011.8
20260503001634 68 134 0.0 0.0 0.00 0.00 0.00 62 1011.7
20260503001132 69 147 0.0 0.0 0.00 0.00 0.00 67 1012.0
20260503000910 69 99 0.0 0.0 0.00 0.00 0.00 65 1011.7
20260503000129 69 126 0.0 0.0 0.00 0.00 0.00 62 1011.9
20260502235632 69 131 0.0 0.0 0.00 0.00 0.00 65 1011.9
20260502235129 69 132 0.0 0.0 0.00 0.00 0.00 61 1012.2
20260502234629 69 123 0.0 0.0 0.00 0.00 0.00 60 1011.8
20260502234426 70 129 0.0 0.0 0.00 0.00 0.00 60 1012.3
20260502233629 69 155 0.0 0.0 0.00 0.00 0.00 59 1012.2
20260502233129 70 117 0.0 0.0 0.00 0.00 0.00 62 1012.2
20260502232631 69 68 0.0 0.0 0.00 0.00 0.00 61 1012.3
20260502232130 69 135 0.0 0.0 0.00 0.00 0.00 57 1012.3
20260502231629 68 125 0.0 0.0 0.00 0.00 0.00 59 1012.5
20260502231425 69 115 0.0 0.0 0.00 0.00 0.00 68 1012.5
20260502230628 69 131 0.0 0.0 0.00 0.00 0.00 66 1012.6
20260502230129 69 123 0.0 0.0 0.00 0.00 0.00 62 1012.7
20260502225629 69 68 0.0 0.0 0.00 0.00 0.00 63 1013.0
20260502225130 69 134 0.0 0.0 0.00 0.00 0.00 63 1013.0
20260502224630 70 119 0.0 0.0 0.00 0.00 0.00 60 1013.1
20260502224129 69 162 0.0 0.0 0.00 0.00 0.00 61 1012.9
20260502223629 69 35 0.0 0.0 0.00 0.00 0.00 62 1013.2
20260502223421 69 141 0.0 0.0 0.00 0.00 0.00 63 1012.9
20260502222629 69 138 0.0 0.0 0.00 0.00 0.00 59 1013.1
20260502222129 69 139 0.0 0.0 0.00 0.00 0.00 57 1013.3
20260502221629 69 95 0.0 0.0 0.00 0.00 0.00 60 1013.3
20260502221424 69 125 0.0 0.0 0.00 0.00 0.00 57 1013.4
20260502220629 69 136 0.0 0.0 0.00 0.00 0.00 56 1013.3
20260502220129 69 112 0.0 0.0 0.00 0.00 0.00 57 1013.3
20260502215919 69 141 0.0 0.0 0.00 0.00 0.00 54 1013.4
20260502215129 69 112 0.0 0.0 0.00 0.00 0.00 55 1013.4
20260502214629 69 115 0.0 0.0 0.00 0.00 0.00 55 1013.4
20260502214232 69 134 0.0 0.0 0.00 0.00 0.00 59 1013.6
20260502214201 69 49 0.0 0.0 0.00 0.00 0.00 56 1013.4
20260502213130 69 115 0.0 0.0 0.00 0.00 0.00 54 1013.8
20260502212630 69 129 0.0 0.0 0.00 0.00 0.00 56 1013.7
20260502212440 68 142 0.0 0.0 0.00 0.00 0.00 58 1013.8
20260502211632 68 161 0.0 0.0 0.00 0.00 0.00 63 1013.9
20260502211130 67 98 0.0 0.0 0.00 0.00 0.00 64 1013.9
20260502210630 67 127 0.0 0.0 0.00 0.00 0.00 65 1013.9
20260502210129 67 127 0.0 0.0 0.00 0.00 0.00 61 1014.1
20260502205629 67 106 0.0 0.0 0.00 0.00 0.00 62 1013.7
20260502205131 67 139 0.0 0.0 0.00 0.00 0.00 64 1014.0
20260502204631 67 90 0.0 1.0 0.00 0.00 0.00 67 1013.9